Skip Page Navigation
NASA JPL Caltech
NASA Logo - Jet Propulsion Laboratory + View the NASA Portal
+ Center for Near-Earth Object Studies
JPL Home Earth Solar System Stars & Galaxies Technology
JPL Solar System Dynamics
BODIES ORBITS EPHEMERIDES TOOLS PHYSICAL DATA DISCOVERY FAQ SITE MAP
JPL Small-Body Database Browser
Search: [ help ]  
11606 Almary (1995 UU6)
Classification: Main-belt Asteroid          SPK-ID: 2011606
Ephemeris | Orbit Diagram | Orbital Elements | Mission Design | Physical Parameters | Discovery Circumstances | Close-Approach Data ]

[ hide orbit diagram ]

For accurate long-term ephemerides, please instead use our Horizons system.This orbit viewer was implemented using two-body methods, and hence should not be used for determining accurate long-term trajectories (over several years or decades) or planetary encounter circumstances.


[ revert to old Java-based viewer ]

Orbital Elements at Epoch 2459000.5 (2020-May-31.0) TDB
Reference: JPL 13 (heliocentric ecliptic J2000)
 Element Value Uncertainty (1-sigma)   Units 
e .1655145841728776 8.1758e-08  
a 2.443291844231714 1.5348e-08 au
q 2.038891410620719 1.9288e-07 au
i 5.838150989367977 6.9034e-06 deg
node 335.5318883682829 4.3795e-05 deg
peri 30.65145405636363 4.6816e-05 deg
M 179.2410622034286 1.4075e-05 deg
tp 2458305.961294937604
(2018-Jul-06.46129494)
5.2961e-05 TDB
period 1394.959005200985
3.82
1.3144e-05
3.599e-08
d
yr
n .2580721000816302 2.4317e-09 deg/d
Q 2.84769227784271 1.7888e-08 au
  Orbit Determination Parameters
   # obs. used (total)      293  
   data-arc span      9926 days (27.18 yr)  
   first obs. used      1991-10-07  
   last obs. used      2018-12-10  
   planetary ephem.      DE431  
   SB-pert. ephem.      SB431-N16  
   condition code      0  
   norm. resid. RMS      .57672  
   source      ORB  
   producer      Otto Matic  
   solution date      2019-Jul-12 19:13:03  

Additional Information
 Earth MOID = 1.03931 au 
 Jupiter MOID = 2.62069 au 
 T_jup = 3.474 
[ show covariance matrix ]

Ephemeris | Orbit Diagram | Orbital Elements | Mission Design | Physical Parameters | Discovery Circumstances | Close-Approach Data ]

Physical Parameter Table
Parameter Symbol Value Units Sigma Reference Notes
absolute magnitude H 17.0   n/a MPO452334  

11606 Almary           Discovered 1995 Oct. 19 by D. J. Tholen at Mauna Kea.
This minor planet is named for the parents of the discoverer, Alfred and Mary, on the occasion of their fiftieth wedding anniversary.
NOTE: some special characters may not display properly (any characters within {} are an attempt to place the proper accent above a character)
Reference: 20020724/MPCPages.arcLast Updated: 2003-10-02

[ show close-approach data ]
Ephemeris | Orbit Diagram | Orbital Elements | Mission Design | Physical Parameters | Discovery Circumstances | Close-Approach Data ]
ABOUT SSD CREDITS/AWARDS PRIVACY/COPYRIGHT GLOSSARY LINKS
FirstGov 2020-Aug-08 10:06 UT
(server date/time)  
NASA Home Page
Site Manager:   Ryan S. Park
Webmaster  Alan B. Chamberlin